Simultaneous Nadir Overpasses (SNOs) Predictions

Prediction of SNOs between GOES-16 and LANDSAT-8 Satellite Orbit:

Table of predicted SNOs for the next 14.0 days since TLE Epoch: 10/8/2022
Index Date Time (GOES-16) GOES-16 Lat,Lon LANDSAT-8 Lat,Lon Distance(km) Time Diff (sec)
1 10/08/2022 15:03:39 -0.08, -75.20 -0.65, -72.45 311.91 80
2 10/09/2022 03:25:03 0.08, -75.19 -0.45, -77.64 279.46 80
3 10/11/2022 03:10:10 0.08, -75.20 0.18, -74.68 59.27 80
4 10/13/2022 02:57:57 0.07, -75.22 0.83, -71.72 398.55 80
5 10/13/2022 15:19:12 -0.07, -75.24 0.26, -76.87 185.41 80
6 10/15/2022 15:09:38 -0.07, -75.26 -0.34, -73.90 154.53 80
7 10/16/2022 03:31:02 0.07, -75.26 -0.74, -79.10 436.19 80
8 10/17/2022 14:57:24 -0.06, -75.29 -0.96, -70.93 495.02 80
9 10/18/2022 03:18:48 0.06, -75.29 -0.12, -76.13 95.52 80
10 10/20/2022 03:03:54 0.05, -75.32 0.53, -73.16 245.89 80
11 10/20/2022 15:25:09 -0.05, -75.34 0.56, -78.32 337.64 80
